Regional Weather Roundup
Issued by NWS

Home | Current Version | Previous Version | Text Only | Print | Product List | Glossary On
Versions: 1 2 3 4 5 6 7 8 9 10 11 12 13 14 15 16 17 18 19 20 21 22 23 24 25 26 27 28 29 30 31 32 33 34 35 36 37 38 39 40 41 42 43 44 45 46 47 48 49 50
000
ASUS42 KTBW 281616
RWRFL
FLORIDA REGIONAL WEATHER ROUNDUP
NATIONAL WEATHER SERVICE TAMPA BAY RUSKIN FL
1200 PM EDT SAT MAR 28 2015

NOTE: "FAIR" INDICATES FEW OR NO CLOUDS BELOW 12,000 FEET WITH NO
SIGNIFICANT WEATHER AND/OR OBSTRUCTIONS TO VISIBILITY.


FLZ001>010-012>015-112-114-115-281700-
PANHANDLE FLORIDA

CITY           SKY/WX    TMP DP  RH WIND       PRES   REMARKS
PENSACOLA      SUNNY     54  33  45 VRB6      30.26S
PENSACOLA NAS  MOSUNNY   56  34  43 N6        30.25F
MILTON NAS     SUNNY     53  29  39 VRB6      30.26
CRESTVIEW      SUNNY     54  29  38 VRB7      30.26S
VALPARAISO     MOSUNNY   54  29  38 NW5       30.24F
MARY ESTHER    SUNNY     55  27  34 N8        30.24S
TRI COUNTY     FAIR      53  27  36 VRB5      30.24S
PANAMA CITY    FAIR      55  32  41 NW7       30.24S
TYNDALL AFB    SUNNY     55  32  42 VRB7G18   30.25R
APALACHICOLA   SUNNY     60  33  36 N14G23    30.23S

STATION/POSITION SKY/WX   TEMP    WIND        PRES    WAVE   SWELL
                          AIR SEA DIR/SP/G            HT/PER HT/PER
                          (F)     (DEG/KT/KT) (MB)    (FT/S) (FT/S)
30.1N   87.6W              52 66   30/  8/ 12 1024.0F   1/ 6
29.2N   88.2W              57 71   50/  8/ 12 1025.2R   3/ 4   2/ 4
28.8N   86.0W              59 75  350/ 14/ 17 1024.9R   4/ 6
PANAMA CITY BEAC           51 63  360/ 10/ 12 1024.1R
CAPE SAN BLAS    NOT AVBL
TOWER C                    53     310/ 11/ 13 1024.0R
28.5N   84.5W              59 68  330/ 16/ 17 1023.5S   5/ 7

$$
FLZ011-016>038-118-127-128-134-139-239-281700-
NORTH FLORIDA

CITY           SKY/WX    TMP DP  RH WIND       PRES   REMARKS
MARIANNA       LGT RAIN  53  31  42 W12       30.22F
TALLAHASSEE    SUNNY     56  29  35 NW13      30.22S
PERRY          SUNNY     55  35  45 NW5       30.21F
CROSS CITY       N/A     60  36  40 NW10G16   30.20R
LAKE CITY      FAIR      55  32  41 W8G20     30.18S
GAINESVILLE    SUNNY     59  35  40 W13G22    30.18R
MAYPORT NAS    SUNNY     56  34  43 W12G18    30.15F
JACKSONVILLE   MOSUNNY   56  34  43 NW14      30.15F
JAX NAS        MOSUNNY   60  29  30 W13G22    30.16F
JAX CRAIG      SUNNY     57  32  38 NW8G20    30.15F
JAX CECIL      SUNNY     57  32  38 W14       30.17S
FERNANDINA BEA FAIR      61  34  36 W16G22    30.14R
ST AUGUSTINE   SUNNY     58  34  40 W10G20    30.15S

STATION/POSITION SKY/WX   TEMP    WIND        PRES    WAVE   SWELL
                          AIR SEA DIR/SP/G            HT/PER HT/PER
                          (F)     (DEG/KT/KT) (MB)    (FT/S) (FT/S)
SHELL POINT                51     340/ 11/ 14   N/A
KEATON BEACH               54     300/  7/ 10 1023.3R
CEDAR KEY                  56     340/ 10/ 14 1023.0R
FERNANDINA                 52 64  290/ 11/ 15 1020.4R
30.7N   81.3W                 61                N/A     3/ 9
MAYPORT                    52 65  310/ 11/ 15 1021.1R
31.4N   80.9W              50 60  300/ 12/ 16 1020.2R   2/ 4   2/ 8
ST AUGUSTINE               56 60  310/ 14/ 16 1021.3R

$$
FLZ040-043>046-052-053-057-058-063-144-281700-
INTERIOR CENTRAL FLORIDA

CITY           SKY/WX    TMP DP  RH WIND       PRES   REMARKS
OCALA          SUNNY     59  34  38 NW5G21    30.17F
THE VILLAGES     N/A     59  36  41 W6G13     30.08R
LEESBURG       MOSUNNY   59  34  39 VRB7      30.18S
SANFORD        MOSUNNY   60  35  39 NW10G20   30.16S
ORLANDO EXEC   PTSUNNY   60  31  33 NW8       30.17S
ORLANDO INTL   PTSUNNY   60  31  33 W12       30.17S
KISSIMMEE      SUNNY     61  34  36 NW10G16   30.18S
WINTER HAVEN   PTSUNNY   63  37  38 N12       30.19S
LAKELAND       PTSUNNY   61  41  48 NW12      30.19S
BARTOW         PTSUNNY   59  37  44 NW12G23   30.19S
OKEECHOBEE     MOSUNNY   64  43  45 NW18      30.17S

$$
FLZ041-047-054-059-064-141-147-281700-
EAST CENTRAL FLORIDA

CITY           SKY/WX    TMP DP  RH WIND       PRES   REMARKS
ORMOND BEACH   SUNNY     57  32  38 NW15      30.16R
DAYTONA BEACH  PTSUNNY   60  36  40 N10       30.16S
DELAND           N/A    N/A N/A N/A NW7       30.17S
NEW SMYRNA BEA SUNNY     61  37  41 N5        30.17R
JFK SPACE CTR  PTSUNNY   61  36  39 N9        30.15R
CAPE CANAVERAL PTSUNNY   61  36  39 NW14      30.15S
PATRICK AFB    PTSUNNY   62  39  42 NW9G18    30.16S
MELBOURNE      PTSUNNY   63  35  35 NW10G21   30.16R
VERO BEACH     SUNNY     66  37  34 NW16      30.16S
FT PIERCE      MOSUNNY   66  38  35 NW16G24   30.16S
STUART         MOSUNNY   64  37  36 NW17      30.17S

STATION/POSITION SKY/WX   TEMP    WIND        PRES    WAVE   SWELL
                          AIR SEA DIR/SP/G            HT/PER HT/PER
                          (F)     (DEG/KT/KT) (MB)    (FT/S) (FT/S)
28.5N   80.2W              57 71  310/ 16/ 21 1020.9R
28.9N   78.5W              64 75  300/ 17/ 23 1018.7R
TRIDENT PIER               58 72  310/  9/ 15 1021.8R
28.4N   80.5W                 71                N/A     2/ 7
27.5N   80.2W                 75                N/A     4/ 5

$$
FLZ050-056-061-142-242-148-248-149-249-151-251-155-255-
160-260-281700-
WEST CENTRAL FLORIDA

CITY           SKY/WX    TMP DP  RH WIND       PRES   REMARKS
CRYSTAL RIVER  FAIR      59  32  36 NW9       30.19R
INVERNESS      FAIR     N/A N/A N/A NW3       30.19S
BROOKSVILLE    PTSUNNY   62  40  44 NW9       30.20R
ZEPHYRHILLS    FAIR      61  36  39 W10       30.20S
CLEARWATER     MOSUNNY   65  46  50 NW12      30.19S
TAMPA INTL     CLOUDY    67  39  35 N9        30.20R
TAMPA EXEC     PTSUNNY   63  43  48 NW6       30.20S
PLANT CITY     PTSUNNY   61  43  51 NW7       30.21R
MACDILL AFB    MOSUNNY   64  48  55 N6        30.20R
PETER O KNIGHT PTSUNNY   63  46  55 NW5       30.20R
ST PETERSBURG  MOSUNNY   63  47  55 N8        30.17S
SARASOTA       MOSUNNY   65  43  44 NW21G28   30.18R
VENICE         FAIR      66  46  48 NW15      30.20R

STATION/POSITION SKY/WX   TEMP    WIND        PRES    WAVE   SWELL
                          AIR SEA DIR/SP/G            HT/PER HT/PER
                          (F)     (DEG/KT/KT) (MB)    (FT/S) (FT/S)
CEDAR KEY                  56     340/ 10/ 14 1023.0R
28.5N   84.5W              59 68  330/ 16/ 17 1023.5S   5/ 7
27.3N   84.2W                 72                N/A     7/ 7
CLEARWATER BEACH           62 69  330/ 18/ 21 1022.2R
MIDDLE TAMPA BAY           59      40/  9/ 12 1022.4R
VENICE                     64 74  330/ 16/ 19 1021.9R

$$
FLZ066-069-070-075>078-162-262-165-265-281700-
SOUTHWEST FLORIDA AND KEYS

CITY           SKY/WX    TMP DP  RH WIND       PRES   REMARKS
PUNTA GORDA    MOSUNNY   67  46  47 N12       30.20S
FT MYERS       MOSUNNY   68  45  43 N15       30.17S
SOUTHWEST INTL MOSUNNY   67  45  45 N15       30.18S
NAPLES         MOSUNNY   68  46  45 N7        30.18R
MARCO ISLAND   SUNNY     70  45  40 NW9G17    30.18R
IMMOKALEE      MOSUNNY  N/A N/A N/A NW7       30.18S
MARATHON       MOSUNNY   71  53  52 NE14      30.17R
KEY WEST NAS   CLOUDY    70  55  59 N12G22    30.18R
KEY WEST INTL  CLOUDY    71  58  63 N10       30.18R

STATION/POSITION SKY/WX   TEMP    WIND        PRES    WAVE   SWELL
                          AIR SEA DIR/SP/G            HT/PER HT/PER
                          (F)     (DEG/KT/KT) (MB)    (FT/S) (FT/S)
VENICE                     64 74  330/ 16/ 19 1021.9R
NAPLES                     64 75   30/  6/ 10 1021.3R
26.0N   85.6W              69 74   30/ 12/ 16 1022.6R   6/ 8   5/ 8
DRY TORTUGAS               71      20/ 15/ 18 1021.4R
NW FL BAY                  66      30/ 13/ 17 1021.6
SAND KEY                   69      20/ 15/ 19 1021.8R
SOMBRERO KEY               67      10/ 17/ 18 1022.2R
LONG KEY                   66 77   20/ 15/ 17 1022.5R
MOLASSES REEF              65 76   20/ 18/ 20 1021.1S

$$
FLZ067-068-071>074-168-172>174-281700-
SOUTHEAST FLORIDA

CITY           SKY/WX    TMP DP  RH WIND       PRES   REMARKS
W PALM BEACH   PTSUNNY   67  42  40 NW17      30.14F
FT LAUDER-EXEC MOSUNNY   68  41  37 NW13G23   30.16R
FT LAUDERDALE  PTSUNNY   68  43  40 NW12G20   30.15S
POMPANO BEACH  PTSUNNY   69  40  34 NW21G29   30.15S
PEMBROKE PINES MOSUNNY   69  43  38 N14G25    30.17S
OPA LOCKA      MOSUNNY   70  44  39 N13G22    30.16S
MIAMI          PTSUNNY   67  43  41 N13G18    30.16R
WEST KENDALL   MOSUNNY   70  44  39 N17G25    30.16S
HOMESTEAD      SUNNY     68  46  45 NW13G18   30.16S

STATION/POSITION SKY/WX   TEMP    WIND        PRES    WAVE   SWELL
                          AIR SEA DIR/SP/G            HT/PER HT/PER
                          (F)     (DEG/KT/KT) (MB)    (FT/S) (FT/S)
PORT EVERGLADES            67     320/ 10/ 16 1020.9R
VIRGINIA KEY               65 78  340/  7/ 12 1020.7R
LAKE WORTH                 63 74  340/ 10/ 15 1020.6R
SETTLEMENT POINT           67     320/ 20/ 22 1021.0R

$$



USA.gov is the U.S. government's official web portal to all federal, state and local government web resources and services.